This is the latest recevied weather packets stored in our database for station/object SA6BET-2. If no packets are shown the sender has not sent any weather packets the latest 1 day(s).
| Time | Temp. | Humidity | Pressure | Rain* | Wind** | Luminosity | Snow |
|---|---|---|---|---|---|---|---|
| 1778098772 | 19.44° C | 100% | 1014.7 hPa | - | - | - | - |
| 1778097872 | 19.44° C | 100% | 1014.4 hPa | - | - | - | - |
| 1778093371 | 20° C | 100% | 1013.8 hPa | - | - | - | - |
| 1778092471 | 20° C | 100% | 1013.6 hPa | - | - | - | - |
| 1778087970 | 22.22° C | 100% | 1013.4 hPa | - | - | - | - |
| 1778087070 | 22.78° C | 100% | 1013.4 hPa | - | - | - | - |
| 1778086166 | 23.33° C | 100% | 1013.2 hPa | - | - | - | - |
| 1778085266 | 24.44° C | 100% | 1013.2 hPa | - | - | - | - |
| 1778080765 | 26.67° C | 84% | 1013.3 hPa | - | - | - | - |
| 1778079865 | 26.11° C | 86% | 1013.3 hPa | - | - | - | - |
| 1778076264 | 25° C | 100% | 1013.7 hPa | - | - | - | - |
| 1778075364 | 27.22° C | 83% | 1013.7 hPa | - | - | - | - |
| 1778070863 | 27.78° C | 79% | 1014.1 hPa | - | - | - | - |
| 1778069075 | 24.44° C | 100% | 1014.4 hPa | - | - | - | - |
| 1778068175 | 25° C | 100% | 1014.4 hPa | - | - | - | - |
| 1778065474 | 25.56° C | 100% | 1014.5 hPa | - | - | - | - |
| 1778064574 | 25.56° C | 100% | 1014.8 hPa | - | - | - | - |
| 1778063674 | 24.44° C | 100% | 1014.7 hPa | - | - | - | - |
| 1778062769 | 25° C | 100% | 1014.7 hPa | - | - | - | - |
| 1778061869 | 23.33° C | 100% | 1014.8 hPa | - | - | - | - |
| 1778058268 | 22.78° C | 100% | 1014.2 hPa | - | - | - | - |
| 1778057368 | 22.78° C | 100% | 1014.2 hPa | - | - | - | - |
| 1778056468 | 22.22° C | 100% | 1014.1 hPa | - | - | - | - |
| 1778055567 | 21.67° C | 100% | 1014.1 hPa | - | - | - | - |
| 1778054667 | 20.56° C | 100% | 1014.1 hPa | - | - | - | - |
* Rain since midnight (hover to see other rain measurements)
** Current wind speed in m/s (hover to see current wind gust speed)